SARAL (39086 NORAD) Tracking and Keplerian Element Data

This shows tracking and keplerian element data for the satellite.

Feedback or suggestion? Click here.




ElementValue
Catalog39086
NameSARAL
Epoch Orbit29906
Epoch Day319.94375581
Epoch Year2018
RAAN144.4704
Inclination98.539
Eccentricity0.0001693
Argument of Perigee127.3078
Mean Anonmoly232.8261
Mean Motion14.32026192
Decay Rate-2E-07
L11 39086U 13009A 18319.94375581 -.00000020 00000-0 87547-5 0 9992
L22 39086 98.5390 144.4704 0001693 127.3078 232.8261 14.32026192299063

Live tracking and technical data element details for SARAL (NORAD 39086). SARAL can be tracked NOW for your location showing map with azimuth and elevation plus other details from your city location.

Track the satellite on the map from your city or location and see movement details for azimuth, elevation, latitude, longitude, range, height, and movement on the map or in text.







IsCatalogInMostPopularTable: catalog: 39086, numindb: 177
Update: records affected: 1



GetName: 39086 SARAL

Hit Count: updated at: Fri, 16 Nov 2018 09:47:26 GMT